Location: Vancouver
(49.2500°N, 123.1330°W)
Time: 14:39:20
(UTC-07:00)

Cosmos 676 Rocket - Visible Passes

Search period start: 29 April 2016 00:00
Search period end: 09 May 2016 00:00
Orbit: 754 x 785 km, 74.0° (Epoch: 28 April)

Date Brightness Start Highest point End Pass type
(mag) Time Alt. Az. Time Alt. Az. Time Alt. Az.
29 Apr 5.6 03:46:21 10° SSE 03:50:54 30° E 03:55:29 10° NE visible
30 Apr 6.2 03:11:01 10° SE 03:14:38 19° E 03:18:18 10° NE visible
30 Apr 4.1 04:50:51 10° SSW 04:56:10 71° WNW 05:01:31 10° NNE visible
01 May 6.5 02:36:47 10° ESE 02:38:30 12° E 02:40:13 10° ENE visible
01 May 4.2 04:15:06 14° SSW 04:19:37 75° ESE 04:24:58 10° NNE visible
02 May 4.8 03:39:26 18° S 03:43:10 47° ESE 03:48:18 10° NNE visible
03 May 5.5 03:03:44 17° SSE 03:06:50 30° E 03:11:26 10° NE visible
03 May 4.6 04:44:02 12° SW 04:48:44 46° WNW 04:53:54 10° NNE visible
04 May 6.0 02:27:59 14° SE 02:30:35 19° E 02:34:17 10° NE visible
04 May 4.1 04:08:17 19° SW 04:12:06 70° WNW 04:17:28 10° NNE visible
05 May 6.4 01:52:36 10° ESE 01:54:26 12° E 01:56:15 10° ENE visible
05 May 4.1 03:32:31 26° SSW 03:35:33 76° ESE 03:40:56 10° NNE visible
06 May 4.7 02:56:42 28° SSE 02:59:07 48° ESE 03:04:15 10° NNE visible
06 May 5.2 04:37:00 11° WSW 04:41:26 31° NW 04:46:11 10° N visible
07 May 5.3 02:20:52 24° SE 02:22:46 31° E 02:27:24 10° NE visible
07 May 4.6 04:01:09 19° SW 04:04:41 45° WNW 04:09:51 10° NNE visible
08 May 5.8 01:44:59 17° ESE 01:46:31 20° E 01:50:15 10° NE visible
08 May 4.1 03:25:17 29° SW 03:28:02 70° WNW 03:33:24 10° NNE visible
